Novato, CA

2:01 PM PST on December 12, 2019 (GMT -0800)
Gnoss

Weather History for KDVO - October, 2019

Change the Weather History Date:

Thursday, October 10, 2019

  Actual Average (KAPC) Record (KAPC)
Temperature  
Mean Temperature 60 °F -  
Max Temperature 80 °F 79 °F 92 °F (1999)
Min Temperature 41 °F 50 °F 39 °F (2005)
Degree Days  
Heating Degree Days 4    
Growing Degree Days 10 (Base 50)    
Moisture  
Dew Point 18 °F    
Average Humidity 26    
Maximum Humidity 65    
Minimum Humidity 5    
Precipitation  
Precipitation 0.00 in - - ()
Sea Level Pressure  
Sea Level Pressure 29.97 in    
Wind  
Wind Speed 5 mph ()    
Max Wind Speed 14 mph    
Max Gust Speed 22 mph    
Visibility 10.0 miles    
Events      
Averages and records for this station are not official NWS values.
T = Trace of Precipitation, MM = Missing Value Source: Averaged Metar Reports

Daily Weather History Graph

Daily Weather History Graph

Search for Another Location

Airport or City:

Astronomy

Oct. 10, 2019 Rise Set
Actual Time 7:14 AM PDT 6:39 PM PDT
Civil Twilight 6:47 AM PDT 7:06 PM PDT
Nautical Twilight 6:17 AM PDT 7:36 PM PDT
Astronomical Twilight 5:46 AM PDT 8:07 PM PDT
Moon 5:40 PM PDT (10/10) 4:07 AM PDT (10/10)
Length of Visible Light 12h 18m
Length of Day
11h 25m
Waxing Gibbous, 91% of the Moon is Illuminated
Oct 10
Waxing Gibbous
Oct 13
Full
Oct 21
Last Quarter
Oct 27
New
Nov 4
First Quarter

Hourly Weather History & Observations

Time (PDT) Temp. Windchill Dew Point Humidity Pressure Visibility Wind Dir Wind Speed Gust Speed Precip Events Conditions
12:15 AM 51.8 °F - 28.4 °F 41% 29.94 in 10.0 mi Calm Calm - N/A   Clear
12:35 AM 50.0 °F - 26.6 °F 40% 29.94 in 10.0 mi Calm Calm - N/A   Clear
12:55 AM 50.0 °F - 26.6 °F 40% 29.94 in 10.0 mi Calm Calm - N/A   Clear
1:15 AM 46.4 °F 44.3 °F 23.0 °F 40% 29.94 in 10.0 mi Variable 4.6 mph - N/A   Clear
1:35 AM 48.2 °F - 23.0 °F 37% 29.94 in 10.0 mi Variable 4.6 mph - N/A   Clear
1:55 AM 50.0 °F - 26.6 °F 40% 29.94 in 10.0 mi SSE 5.8 mph - N/A   Clear
2:15 AM 48.2 °F - 28.4 °F 46% 29.94 in 10.0 mi Calm Calm - N/A   Clear
2:55 AM 48.2 °F - 28.4 °F 46% 29.94 in 10.0 mi South 5.8 mph - N/A   Clear
3:15 AM 53.6 °F - 21.2 °F 28% 29.94 in 10.0 mi SW 5.8 mph - N/A   Clear
3:35 AM 50.0 °F - 24.8 °F 37% 29.94 in 10.0 mi SSW 5.8 mph - N/A   Clear
3:55 AM 48.2 °F - 19.4 °F 32% 29.94 in 10.0 mi Calm Calm - N/A   Clear
4:15 AM 44.6 °F 42.2 °F 19.4 °F 37% 29.94 in 10.0 mi Variable 4.6 mph - N/A   Clear
4:35 AM 50.0 °F - 21.2 °F 32% 29.95 in 10.0 mi South 6.9 mph - N/A   Clear
4:55 AM 48.2 °F - 23.0 °F 37% 29.95 in 10.0 mi SW 3.5 mph 11.5 mph N/A   Clear
5:15 AM 46.4 °F 44.3 °F 24.8 °F 43% 29.95 in 10.0 mi SW 4.6 mph - N/A   Clear
5:35 AM 48.2 °F - 21.2 °F 34% 29.96 in 10.0 mi South 4.6 mph - N/A   Clear
5:55 AM 44.6 °F 40.7 °F 21.2 °F 39% 29.95 in 10.0 mi SW 6.9 mph - N/A   Clear
6:15 AM 46.4 °F 41.5 °F 24.8 °F 43% 29.96 in 10.0 mi South 10.4 mph - N/A   Clear
6:35 AM 46.4 °F 41.9 °F 24.8 °F 43% 29.96 in 10.0 mi South 9.2 mph - N/A   Clear
6:55 AM 44.6 °F 41.4 °F 26.6 °F 49% 29.97 in 10.0 mi Variable 5.8 mph - N/A   Clear
7:15 AM 41.0 °F - 23.0 °F 49% 29.97 in 10.0 mi Calm Calm - N/A   Clear
7:35 AM 44.6 °F 42.2 °F 23.0 °F 43% 29.97 in 10.0 mi Variable 4.6 mph - N/A   Clear
7:55 AM 46.4 °F 41.5 °F 24.8 °F 43% 29.97 in 10.0 mi South 10.4 mph - N/A   Clear
8:15 AM 51.8 °F - 21.2 °F 30% 29.98 in 10.0 mi SSE 5.8 mph - N/A   Clear
8:35 AM 55.4 °F - 17.6 °F 23% 29.99 in 10.0 mi South 6.9 mph - N/A   Clear
8:55 AM 57.2 °F - 17.6 °F 21% 30.00 in 10.0 mi South 8.1 mph - N/A   Clear
9:15 AM 60.8 °F - 15.8 °F 17% 30.00 in 10.0 mi South 4.6 mph - N/A   Clear
9:35 AM 68.0 °F - 8.6 °F 10% 30.00 in 10.0 mi ENE 12.7 mph - N/A   Clear
9:55 AM 71.6 °F - 6.8 °F 8% 30.00 in 10.0 mi NNE 13.8 mph 21.9 mph N/A   Clear
10:15 AM 71.6 °F - 8.6 °F 9% 30.00 in 10.0 mi NNE 8.1 mph 16.1 mph N/A   Clear
10:35 AM 71.6 °F - 6.8 °F 8% 30.00 in 10.0 mi Variable 3.5 mph - N/A   Clear
10:55 AM 73.4 °F - 5.0 °F 7% 30.00 in 10.0 mi ENE 8.1 mph - N/A   Clear
11:15 AM 75.2 °F - 5.0 °F 7% 30.00 in 10.0 mi NE 8.1 mph - N/A   Clear
11:35 AM 75.2 °F - 3.2 °F 6% 30.00 in 10.0 mi Variable 5.8 mph - N/A   Clear
11:55 AM 77.0 °F - 5.0 °F 6% 29.99 in 10.0 mi North 8.1 mph - N/A   Clear
12:15 PM 77.0 °F - 5.0 °F 6% 29.99 in 10.0 mi NE 12.7 mph 20.7 mph N/A   Clear
12:35 PM 78.8 °F - 3.2 °F 5% 29.99 in 10.0 mi NNE 12.7 mph - N/A   Clear
12:55 PM 78.8 °F - 5.0 °F 6% 29.99 in 10.0 mi ENE 11.5 mph - N/A   Clear
1:15 PM 78.8 °F - 3.2 °F 5% 29.98 in 10.0 mi ENE 6.9 mph 12.7 mph N/A   Clear
1:35 PM 80.6 °F - 3.2 °F 5% 29.97 in 10.0 mi NE 11.5 mph - N/A   Clear
1:55 PM 78.8 °F - 3.2 °F 5% 29.96 in 10.0 mi East 12.7 mph - N/A   Clear
2:15 PM 80.6 °F - 3.2 °F 5% 29.95 in 10.0 mi ENE 9.2 mph 18.4 mph N/A   Clear
2:35 PM 80.6 °F - 3.2 °F 5% 29.95 in 10.0 mi NE 12.7 mph 19.6 mph N/A   Clear
2:55 PM 80.6 °F - 3.2 °F 5% 29.95 in 10.0 mi ENE 10.4 mph 19.6 mph N/A   Clear
3:15 PM 80.6 °F - 3.2 °F 5% 29.94 in 10.0 mi ENE 9.2 mph 18.4 mph N/A   Clear
3:35 PM 80.6 °F - 5.0 °F 6% 29.94 in 10.0 mi East 9.2 mph - N/A   Clear
3:55 PM 80.6 °F - 3.2 °F 5% 29.94 in 10.0 mi East 12.7 mph 19.6 mph N/A   Clear
4:15 PM 80.6 °F - 14.0 °F 8% 29.94 in 10.0 mi SE 6.9 mph 15.0 mph N/A   Clear
4:35 PM 78.8 °F - 14.0 °F 9% 29.94 in 10.0 mi ESE 6.9 mph - N/A   Clear
4:55 PM 78.8 °F - 12.2 °F 8% 29.94 in 10.0 mi SE 8.1 mph - N/A   Clear
5:15 PM 78.8 °F - 15.8 °F 9% 29.94 in 10.0 mi South 8.1 mph - N/A   Clear
5:35 PM 75.2 °F - 17.6 °F 11% 29.94 in 10.0 mi SSW 9.2 mph - N/A   Clear
5:55 PM 71.6 °F - 19.4 °F 14% 29.95 in 10.0 mi SW 6.9 mph - N/A   Clear
6:15 PM 66.2 °F - 24.8 °F 21% 29.96 in 10.0 mi NE 4.6 mph - N/A   Clear
6:35 PM 60.8 °F - 26.6 °F 27% 29.96 in 10.0 mi Calm Calm - N/A   Clear
6:55 PM 59.0 °F - 24.8 °F 27% 29.96 in 10.0 mi Calm Calm - N/A   Clear
7:15 PM 57.2 °F - 24.8 °F 29% 29.97 in 10.0 mi Calm Calm - N/A   Mostly Cloudy
7:35 PM 55.4 °F - 23.0 °F 29% 29.97 in 10.0 mi Calm Calm - N/A   Overcast
7:55 PM 55.4 °F - 24.8 °F 31% 29.97 in 10.0 mi Calm Calm - N/A   Overcast
8:15 PM 53.6 °F - 24.8 °F 33% 29.97 in 10.0 mi Calm Calm - N/A   Mostly Cloudy
8:35 PM 50.0 °F - 23.0 °F 35% 29.98 in 10.0 mi Calm Calm - N/A   Mostly Cloudy
8:55 PM 50.0 °F - 23.0 °F 35% 29.98 in 10.0 mi Calm Calm - N/A   Scattered Clouds
9:15 PM 51.8 °F - 24.8 °F 35% 29.98 in 10.0 mi Calm Calm - N/A   Partly Cloudy
9:35 PM 50.0 °F - 26.6 °F 40% 29.99 in 10.0 mi Calm Calm - N/A   Scattered Clouds
9:55 PM 50.0 °F - 21.2 °F 32% 29.99 in 10.0 mi Calm Calm - N/A   Mostly Cloudy
10:15 PM 53.6 °F - 21.2 °F 28% 29.99 in 10.0 mi Calm Calm - N/A   Overcast
10:35 PM 51.8 °F - 28.4 °F 41% 29.99 in 10.0 mi SSW 3.5 mph - N/A   Overcast
10:55 PM 50.0 °F - 28.4 °F 43% 29.99 in 10.0 mi Calm Calm - N/A   Overcast
11:15 PM 44.6 °F - 21.2 °F 39% 29.99 in 10.0 mi Calm Calm - N/A   Overcast
11:35 PM 41.0 °F 38.0 °F 30.2 °F 65% 29.99 in 10.0 mi NNE 4.6 mph - N/A   Overcast
11:55 PM 44.6 °F - 30.2 °F 57% 30.00 in 10.0 mi Calm Calm - N/A   Overcast